Weather History for Gilze-Rijen, Netherlands

Change the Weather History Date:

Tuesday, January 22, 2013

  Actual Average Record
Temperature  
Mean Temperature 24 °F -  
Max Temperature 32 °F 42 °F 51 °F (1997)
Min Temperature 17 °F 32 °F 17 °F (2013)
Degree Days  
Heating Degree Days 40    
Moisture  
Dew Point 25 °F    
Average Humidity 95    
Maximum Humidity 100    
Minimum Humidity 86    
Precipitation  
Precipitation 0.00 in - - ()
Sea Level Pressure  
Sea Level Pressure 29.67 in    
Wind  
Wind Speed 4 mph ()    
Max Wind Speed 6 mph    
Max Gust Speed -    
Visibility 3.0 miles    
Events      
Averages and records for this station are not official NWS values.
T = Trace of Precipitation, MM = Missing Value Source: Averaged Metar Reports

Daily Weather History Graph

Daily Weather History Graph

Search for Another Location

Airport:

Trip Planner

Search our weather history database for the weather conditions in past years. The results will help you decide how hot, cold, wet, or windy it might be!

Date:

Astronomy

Jan. 22, 2013 Rise Set
Actual Time 8:32 AM CET 5:12 PM CET
Civil Twilight 7:54 AM CET 5:49 PM CET
Nautical Twilight 7:13 AM CET 6:30 PM CET
Astronomical Twilight 6:33 AM CET 7:10 PM CET
Moon 1:18 PM CET (1/22) 4:44 AM CET (1/22)
Length of Visible Light 9h 55m
Length of Day
8h 39m
Waxing Gibbous, 80% of the Moon is Illuminated
Jan 22
Waxing Gibbous
Jan 27
Full
Feb 3
Last Quarter
Feb 10
New
Feb 17
First Quarter

Hourly Weather History & Observations

Time (CET) Temp. Windchill Dew Point Humidity Pressure Visibility Wind Dir Wind Speed Gust Speed Precip Events Conditions
12:25 AM 28.4 °F 22.2 °F 28.4 °F 100% 29.56 in - East 5.8 mph - N/A   Overcast
12:33 AM 28.4 °F 23.3 °F 28.4 °F 100% 29.56 in - East 4.6 mph - N/A   Overcast
12:37 AM 28.4 °F 23.3 °F 28.4 °F 100% 29.56 in - East 4.6 mph - N/A   Overcast
12:55 AM 28.4 °F 24.6 °F 28.4 °F 100% 29.56 in - ESE 3.5 mph - N/A   Overcast
1:25 AM 28.4 °F 23.3 °F 28.4 °F 100% 29.56 in - NNE 4.6 mph - N/A   Overcast
1:55 AM 28.4 °F 22.2 °F 26.6 °F 93% 29.59 in 2.2 mi NE 5.8 mph - N/A   Overcast
2:08 AM 28.4 °F 22.2 °F 26.6 °F 93% 29.59 in - ENE 5.8 mph - N/A   Overcast
2:13 AM 28.4 °F 22.2 °F 26.6 °F 93% 29.59 in - ENE 5.8 mph - N/A   Overcast
2:25 AM 28.4 °F 22.2 °F 26.6 °F 93% 29.59 in - ENE 5.8 mph - N/A   Overcast
2:55 AM 28.4 °F 22.2 °F 26.6 °F 93% 29.59 in - East 5.8 mph - N/A   Overcast
3:25 AM 28.4 °F 22.2 °F 26.6 °F 93% 29.59 in - East 5.8 mph - N/A   Overcast
3:55 AM 28.4 °F 22.2 °F 26.6 °F 93% 29.59 in 2.2 mi East 5.8 mph - N/A   Overcast
4:25 AM 28.4 °F 23.3 °F 26.6 °F 93% 29.59 in 2.2 mi ENE 4.6 mph - N/A   Overcast
4:39 AM 28.4 °F 22.2 °F 26.6 °F 93% 29.59 in - East 5.8 mph - N/A   Overcast
4:55 AM 28.4 °F 23.3 °F 26.6 °F 93% 29.59 in - East 4.6 mph - N/A   Overcast
5:25 AM 26.6 °F 22.6 °F 26.6 °F 100% 29.59 in - East 3.5 mph - N/A   Overcast
5:32 AM 26.6 °F 21.2 °F 26.6 °F 100% 29.59 in - East 4.6 mph - N/A   Overcast
5:35 AM 26.6 °F 22.6 °F 26.6 °F 100% 29.59 in - East 3.5 mph - N/A   Overcast
5:48 AM 26.6 °F 22.6 °F 26.6 °F 100% 29.59 in - East 3.5 mph - N/A   Overcast
5:55 AM 26.6 °F - 26.6 °F 100% 29.59 in - ENE 2.3 mph - N/A   Overcast
6:25 AM 26.6 °F 22.6 °F 26.6 °F 100% 29.62 in - ENE 3.5 mph - N/A   Overcast
6:36 AM 26.6 °F 22.6 °F 26.6 °F 100% 29.62 in - East 3.5 mph - N/A   Overcast
6:55 AM 26.6 °F - 26.6 °F 100% 29.62 in - East 2.3 mph - N/A   Overcast
7:10 AM 26.6 °F 22.6 °F 26.6 °F 100% 29.62 in - East 3.5 mph - N/A   Overcast
7:13 AM 26.6 °F 22.6 °F 26.6 °F 100% 29.62 in - East 3.5 mph - N/A   Overcast
7:25 AM 26.6 °F 22.6 °F 26.6 °F 100% 29.62 in - East 3.5 mph - N/A   Overcast
7:39 AM 26.6 °F - 26.6 °F 100% 29.62 in 2.5 mi NE 1.2 mph - N/A   Overcast
7:49 AM 26.6 °F - 26.6 °F 100% 29.62 in 2.2 mi ENE 1.2 mph - N/A   Overcast
7:55 AM 26.6 °F - 26.6 °F 100% 29.62 in - ENE 1.2 mph - N/A   Overcast
8:06 AM 26.6 °F 22.6 °F 26.6 °F 100% 29.65 in - ENE 3.5 mph - N/A   Overcast
8:25 AM 26.6 °F 21.2 °F 26.6 °F 100% 29.65 in - East 4.6 mph - N/A   Overcast
8:36 AM 26.6 °F 20.0 °F 26.6 °F 100% 29.65 in - East 5.8 mph - N/A   Overcast
8:43 AM 26.6 °F 21.2 °F 26.6 °F 100% 29.65 in - East 4.6 mph - N/A   Overcast
8:55 AM 26.6 °F - 26.6 °F 100% 29.65 in 2.2 mi SE 1.2 mph - N/A   Overcast
8:59 AM 26.6 °F - 26.6 °F 100% 29.65 in - WSW 1.2 mph - N/A   Overcast
9:05 AM 26.6 °F - 26.6 °F 100% 29.65 in 2.2 mi West 1.2 mph - N/A   Overcast
9:06 AM 26.6 °F - 26.6 °F 100% 29.65 in - West 1.2 mph - N/A   Overcast
9:25 AM 26.6 °F - 26.6 °F 100% 29.65 in 2.5 mi WNW 1.2 mph - N/A   Overcast
9:55 AM 28.4 °F - 26.6 °F 93% 29.68 in - East 2.3 mph - N/A   Overcast
10:07 AM 28.4 °F 23.3 °F 26.6 °F 93% 29.68 in 3.1 mi East 4.6 mph - N/A   Overcast
10:25 AM 28.4 °F 23.3 °F 26.6 °F 93% 29.68 in - East 4.6 mph - N/A   Overcast
10:31 AM 28.4 °F 24.6 °F 26.6 °F 93% 29.68 in - East 3.5 mph - N/A   Overcast
10:35 AM 28.4 °F 24.6 °F 26.6 °F 93% 29.68 in 3.1 mi East 3.5 mph - N/A   Overcast
10:41 AM 28.4 °F 24.6 °F 26.6 °F 93% 29.68 in - East 3.5 mph - N/A   Overcast
10:47 AM 28.4 °F 23.3 °F 26.6 °F 93% 29.68 in 3.1 mi East 4.6 mph - N/A   Overcast
10:55 AM 28.4 °F 23.3 °F 26.6 °F 93% 29.68 in 3.1 mi East 4.6 mph - N/A   Overcast
11:00 AM 28.4 °F 23.3 °F 26.6 °F 93% 29.68 in - East 4.6 mph - N/A   Mostly Cloudy
11:01 AM 28.4 °F 24.6 °F 26.6 °F 93% 29.68 in 3.1 mi East 3.5 mph - N/A   Mostly Cloudy
11:06 AM 28.4 °F 24.6 °F 26.6 °F 93% 29.68 in - East 3.5 mph - N/A   Mostly Cloudy
11:09 AM 28.4 °F 24.6 °F 26.6 °F 93% 29.68 in 3.1 mi East 3.5 mph - N/A   Overcast
11:25 AM 28.4 °F 23.3 °F 26.6 °F 93% 29.68 in 3.1 mi ENE 4.6 mph - N/A   Mostly Cloudy
11:38 AM 28.4 °F 24.6 °F 26.6 °F 93% 29.68 in 3.1 mi East 3.5 mph - N/A   Partly Cloudy
11:55 AM 28.4 °F 23.3 °F 26.6 °F 93% 29.68 in 3.1 mi East 4.6 mph - N/A   Partly Cloudy
12:25 PM 28.4 °F 24.6 °F 26.6 °F 93% 29.68 in 3.1 mi East 3.5 mph - N/A   Mist
12:55 PM 30.2 °F 24.3 °F 26.6 °F 86% 29.68 in 3.1 mi East 5.8 mph - N/A   Mist
1:18 PM 30.2 °F 24.3 °F 28.4 °F 93% 29.68 in - East 5.8 mph - N/A   Mist
1:25 PM 30.2 °F 24.3 °F 26.6 °F 86% 29.68 in 3.1 mi East 5.8 mph - N/A   Mist
1:38 PM 30.2 °F 24.3 °F 26.6 °F 86% 29.68 in 3.7 mi East 5.8 mph - N/A   Mist
1:55 PM 30.2 °F 24.3 °F 28.4 °F 93% 29.68 in 3.7 mi East 5.8 mph - N/A   Partly Cloudy
2:25 PM 32.0 °F 27.5 °F 28.4 °F 87% 29.68 in 3.7 mi East 4.6 mph - N/A   Mist
2:31 PM 32.0 °F 27.5 °F 28.4 °F 87% 29.68 in 3.7 mi East 4.6 mph - N/A   Mist
2:55 PM 30.2 °F 25.4 °F 26.6 °F 86% 29.68 in 3.7 mi East 4.6 mph - N/A   Mist
3:09 PM 32.0 °F 28.7 °F 28.4 °F 87% 29.68 in 1.9 mi East 3.5 mph - N/A   Mist
3:13 PM 30.2 °F 26.7 °F 26.6 °F 86% 29.68 in 3.7 mi East 3.5 mph - N/A   Partly Cloudy
3:25 PM 30.2 °F 25.4 °F 26.6 °F 86% 29.68 in 3.7 mi NE 4.6 mph - N/A   Mist
3:55 PM 30.2 °F 24.3 °F 26.6 °F 86% 29.68 in 3.7 mi NE 5.8 mph - N/A   Mist
4:25 PM 28.4 °F 22.2 °F 24.8 °F 86% 29.68 in 3.7 mi ENE 5.8 mph - N/A   Mist
4:33 PM 28.4 °F 22.2 °F 24.8 °F 86% 29.68 in 3.7 mi ENE 5.8 mph - N/A   Scattered Clouds
4:55 PM 26.6 °F 20.0 °F 23.0 °F 86% 29.71 in 3.7 mi East 5.8 mph - N/A   Mist
5:18 PM 28.4 °F 23.3 °F 24.8 °F 86% 29.71 in - East 4.6 mph - N/A   Mist
5:25 PM 28.4 °F 23.3 °F 24.8 °F 86% 29.71 in 3.1 mi East 4.6 mph - N/A   Mist
5:39 PM 26.6 °F 21.2 °F 24.8 °F 93% 29.71 in 3.1 mi East 4.6 mph - N/A   Mist
5:43 PM 24.8 °F 19.1 °F 23.0 °F 93% 29.71 in 3.1 mi East 4.6 mph - N/A   Mist
5:55 PM 23.0 °F 17.0 °F 21.2 °F 93% 29.71 in 3.1 mi East 4.6 mph - N/A   Mist
5:56 PM 23.0 °F 18.4 °F 21.2 °F 93% 29.71 in - East 3.5 mph - N/A   Mist
6:04 PM 24.8 °F - 23.0 °F 93% 29.71 in - East 2.3 mph - N/A   Mist
6:07 PM 24.8 °F - 23.0 °F 93% 29.71 in 2.5 mi East 2.3 mph - N/A   Partly Cloudy
6:11 PM 23.0 °F - 23.0 °F 100% 29.71 in - East 2.3 mph - N/A   Partly Cloudy
6:25 PM 23.0 °F 18.4 °F 23.0 °F 100% 29.71 in - ENE 3.5 mph - N/A   Mist
6:27 PM 23.0 °F - 21.2 °F 93% 29.71 in - ENE 2.3 mph - N/A   Mist
6:31 PM 23.0 °F - 21.2 °F 93% 29.71 in - NE 2.3 mph - N/A   Unknown
6:41 PM 21.2 °F - 21.2 °F 100% 29.71 in - NE 2.3 mph - N/A   Mist
6:44 PM 21.2 °F - 21.2 °F 100% 29.71 in - NE 2.3 mph - N/A   Mist
6:49 PM 23.0 °F - 21.2 °F 93% 29.71 in - NE 2.3 mph - N/A   Mist
6:55 PM 21.2 °F 16.4 °F 21.2 °F 100% 29.71 in - NE 3.5 mph - N/A   Mist
7:13 PM 21.2 °F 14.9 °F 21.2 °F 100% 29.71 in - NE 4.6 mph - N/A   Mist
7:19 PM 21.2 °F 14.9 °F 21.2 °F 100% 29.71 in - NE 4.6 mph - N/A   Mist
7:25 PM 24.8 °F 17.9 °F 24.8 °F 100% 29.71 in - NE 5.8 mph - N/A   Mist
7:55 PM 21.2 °F 14.9 °F 21.2 °F 100% 29.71 in 2.2 mi NE 4.6 mph - N/A   Mist
8:05 PM 19.4 °F 12.8 °F 19.4 °F 100% 29.74 in - NE 4.6 mph - N/A   Mist
8:08 PM 19.4 °F 11.5 °F 19.4 °F 100% 29.74 in 2.2 mi NE 5.8 mph - N/A   Mist
8:15 PM 19.4 °F 11.5 °F 19.4 °F 100% 29.74 in - NE 5.8 mph - N/A   Mist
8:20 PM 19.4 °F 12.8 °F 19.4 °F 100% 29.74 in - NE 4.6 mph - N/A   Mist
8:25 PM 19.4 °F 12.8 °F 19.4 °F 100% 29.74 in - NE 4.6 mph - N/A   Mist
8:55 PM 19.4 °F 12.8 °F 19.4 °F 100% 29.74 in - NE 4.6 mph - N/A   Mist
9:25 PM 19.4 °F 14.3 °F 19.4 °F 100% 29.74 in - ENE 3.5 mph - N/A   Mist
9:55 PM 21.2 °F 13.6 °F 21.2 °F 100% 29.74 in - ENE 5.8 mph - N/A   Mist
10:12 PM 21.2 °F 13.6 °F 21.2 °F 100% 29.74 in - ENE 5.8 mph - N/A   Mist
10:25 PM 19.4 °F 12.8 °F 19.4 °F 100% 29.74 in - ENE 4.6 mph - N/A   Mist
10:55 PM 19.4 °F 12.8 °F 19.4 °F 100% 29.74 in - ENE 4.6 mph - N/A   Mist
11:08 PM 19.4 °F 11.5 °F 19.4 °F 100% 29.74 in - ENE 5.8 mph - N/A   Mist
11:09 PM 19.4 °F 12.8 °F 19.4 °F 100% 29.74 in - ENE 4.6 mph - N/A   Mist
11:20 PM 19.4 °F 12.8 °F 19.4 °F 100% 29.74 in - ENE 4.6 mph - N/A   Mist
11:25 PM 17.6 °F 10.7 °F 17.6 °F 100% 29.74 in 2.2 mi ENE 4.6 mph - N/A   Mist
11:55 PM 19.4 °F 12.8 °F 17.6 °F 93% 29.74 in - ENE 4.6 mph - N/A   Mist